Wind_Speed
20 20 19 17 16 15 14 12 11 10 10 9 8 7 7 6 5 4 3 3 2 2 1 2 2 3 4 3 4 4 7 6
17 16 17 16 16 15 15 14 13 13 12 12 10 9 7 7 6 6 6 4 3 2 2 2 3 3 4 2 3 3 4 5
16 16 15 14 14 15 16 16 16 16 15 13 11 10 9 8 8 7 5 5 5 3 3 4 4 3 3 2 3 4 5 6
20 16 14 13 12 16 17 18 18 18 16 15 14 12 11 9 9 9 7 6 6 5 4 4 4 3 2 2 2 3 4 6
20 17 14 13 14 17 19 19 18 17 15 15 14 12 10 9 9 8 7 7 7 5 4 4 3 4 3 2 2 3 4 5
21 17 15 16 16 17 18 17 17 17 16 15 14 13 11 12 11 9 9 9 7 7 6 5 4 4 2 4 2 2 2 4
22 19 19 19 16 17 18 16 14 14 15 15 13 13 13 13 11 10 10 10 9 8 7 7 6 4 1 3 1 1 2 4
24 21 20 19 18 19 18 14 12 13 15 15 14 14 14 13 11 12 11 10 9 8 7 7 6 4 2 3 2 1 3 4
26 25 22 20 19 19 17 16 15 13 13 14 15 15 14 12 12 12 10 8 8 7 7 7 5 5 5 5 3 1 3 4
28 25 26 24 23 22 21 19 17 14 14 14 15 15 13 12 12 10 8 7 8 7 7 6 6 7 9 7 5 3 1 3
30 27 27 27 24 22 22 20 18 15 13 14 15 13 11 11 10 9 7 7 6 7 7 7 5 7 10 8 7 4 1 2
32 28 26 28 26 23 20 18 16 13 11 12 14 13 12 11 9 9 7 6 6 6 7 6 5 6 12 11 11 6 3 2
34 28 26 27 26 23 21 19 16 12 12 13 12 11 11 10 9 8 7 6 6 6 7 6 3 5 13 14 13 10 6 2
34 28 25 25 23 20 19 18 15 12 11 11 12 12 12 11 9 8 7 6 5 6 7 7 6 5 13 20 14 15 12 8
34 27 24 24 22 23 22 20 16 15 13 12 11 12 11 10 8 7 5 5 6 7 8 8 7 6 15 12 10 8 18 13
30 25 24 24 25 27 26 21 18 15 11 12 12 12 10 9 7 7 7 6 6 7 8 7 7 8 10 15 13 18 8 15
28 25 25 26 27 24 20 18 15 14 14 12 10 10 10 9 9 8 7 6 5 5 6 4 4 7 10 12 12 19 22 22
25 23 24 26 24 22 19 22 20 20 18 14 11 12 12 11 9 8 7 5 5 4 5 3 3 5 8 10 10 14 17 24
20 20 23 22 20 21 23 23 22 20 18 16 16 15 12 10 10 9 8 6 6 5 6 4 5 5 8 10 10 9 11 15
19 22 22 20 24 24 24 25 23 20 19 17 17 13 13 12 11 10 9 8 7 7 7 7 7 8 10 12 11 11 10 13
Wind_Direction
178 181 182 182 185 191 195 200 205 207 208 201 201 204 206 208 215 223 220 224 234 255 285 287 307 299 321 328 286 253 248 253
184 179 180 183 190 197 199 202 201 202 201 202 205 206 211 211 208 204 205 206 222 238 277 291 309 326 342 334 302 276 239 249
196 195 192 194 199 203 199 198 197 200 203 207 206 206 204 196 200 209 211 224 245 257 269 292 309 317 329 300 271 259 249 251
194 202 197 201 209 210 200 199 198 202 203 206 208 208 212 209 217 225 222 236 249 264 274 277 301 317 354 338 284 250 256 261
188 191 185 201 201 196 195 198 202 204 206 210 212 213 212 218 223 234 235 241 251 253 266 274 281 302 359 17 291 270 269 284
183 184 175 186 193 193 196 194 201 205 209 212 208 218 215 224 227 230 233 236 241 246 246 251 258 277 344 16 323 286 325 313
186 179 182 189 190 197 196 194 203 211 213 218 215 218 221 225 228 230 235 239 237 236 237 235 236 242 266 57 32 337 357 325
184 183 192 197 202 206 205 210 215 217 219 219 220 218 222 223 225 228 232 233 234 236 231 224 220 212 206 145 112 12 341 334
182 188 197 197 204 208 217 229 223 220 219 219 222 224 225 224 227 232 234 238 240 235 230 224 213 188 189 151 138 281 317 327
185 196 202 199 203 209 220 230 235 225 215 211 214 220 222 223 228 230 232 235 236 226 222 221 200 184 174 167 173 200 300 313
188 195 200 205 209 218 226 229 225 220 212 213 217 219 221 225 224 227 228 230 231 228 222 219 201 177 176 167 158 178 218 279
194 197 202 203 209 216 217 223 224 217 211 209 215 213 216 222 216 216 223 233 229 224 229 221 198 168 164 150 148 160 227 272
197 198 199 204 201 204 213 220 223 224 216 209 210 212 212 220 223 220 221 222 221 225 236 235 221 165 158 154 138 140 141 106
197 201 205 203 203 206 215 221 216 219 222 209 204 209 213 221 222 218 216 219 221 230 236 238 238 186 173 166 130 127 130 113
197 198 202 198 195 199 201 202 207 215 205 211 209 211 214 218 224 224 222 229 231 236 242 239 236 214 171 173 163 164 131 128
195 195 200 196 197 199 203 201 202 207 215 206 201 203 208 215 219 225 223 227 234 243 245 237 221 222 198 205 199 174 153 126
192 192 199 196 195 202 206 204 213 226 210 198 205 208 210 215 215 219 221 224 238 247 255 239 214 213 210 199 180 172 161 153
191 197 202 197 198 200 207 207 222 217 206 210 214 215 211 211 215 221 229 226 235 222 236 230 197 171 171 181 183 175 173 165
194 198 201 201 198 195 207 222 225 228 222 222 219 214 213 213 215 222 221 222 212 192 204 196 170 148 145 158 177 178 175 185
206 199 203 204 205 211 219 219 223 222 227 232 224 222 217 210 212 213 213 208 193 181 183 173 157 141 138 143 146 142 144 153
Height
1507 1507 1510 1512 1514 1516 1517 1519 1522 1524 1524 1525 1526 1528 1528 1528 1528 1529 1529 1528 1528 1527 1527 1527 1528 1527 1526 1526 1524 1524 1525 1525
1507 1508 1510 1511 1513 1515 1516 1518 1520 1522 1523 1523 1525 1526 1527 1527 1527 1527 1527 1527 1526 1526 1526 1526 1526 1527 1525 1525 1524 1524 1524 1524
1506 1507 1509 1511 1512 1513 1515 1516 1518 1520 1521 1522 1524 1524 1525 1526 1526 1525 1525 1526 1526 1526 1526 1525 1525 1525 1524 1524 1524 1524 1524 1523
1504 1506 1507 1510 1510 1512 1514 1515 1516 1518 1519 1520 1521 1522 1523 1524 1524 1524 1525 1525 1525 1525 1525 1525 1524 1524 1523 1522 1523 1523 1523 1522
1502 1504 1505 1508 1509 1510 1511 1513 1515 1516 1518 1518 1518 1520 1521 1522 1523 1523 1524 1524 1524 1524 1524 1524 1523 1523 1523 1522 1521 1521 1521 1521
1501 1501 1504 1506 1508 1509 1510 1512 1513 1514 1515 1516 1517 1518 1519 1520 1520 1522 1523 1523 1523 1523 1523 1522 1522 1522 1522 1521 1521 1521 1521 1520
1497 1499 1501 1502 1506 1508 1509 1510 1513 1514 1515 1515 1516 1517 1517 1518 1519 1520 1520 1521 1521 1522 1522 1522 1521 1521 1521 1520 1519 1520 1520 1519
1495 1497 1498 1500 1502 1504 1506 1509 1512 1513 1514 1514 1514 1515 1515 1516 1517 1518 1518 1518 1519 1520 1520 1520 1520 1520 1520 1519 1519 1519 1519 1519
1494 1496 1498 1501 1502 1503 1505 1507 1509 1511 1512 1513 1513 1514 1515 1515 1515 1515 1516 1517 1517 1518 1518 1518 1519 1518 1519 1519 1518 1519 1518 1519
1489 1492 1495 1499 1501 1502 1504 1506 1508 1509 1509 1510 1511 1512 1513 1513 1512 1513 1515 1515 1516 1516 1516 1516 1517 1517 1518 1518 1517 1518 1519 1519
1484 1488 1492 1495 1499 1502 1504 1505 1506 1507 1508 1508 1509 1511 1513 1511 1511 1512 1513 1514 1515 1515 1515 1515 1515 1516 1517 1517 1517 1517 1518 1518
1480 1481 1484 1488 1493 1498 1501 1503 1505 1507 1507 1507 1507 1508 1511 1510 1510 1510 1510 1511 1513 1513 1514 1514 1514 1515 1516 1517 1517 1518 1518 1517
1475 1478 1480 1484 1487 1493 1497 1500 1502 1505 1506 1506 1506 1507 1509 1508 1509 1508 1509 1510 1510 1510 1512 1513 1513 1514 1515 1516 1518 1520 1519 1517
1468 1472 1474 1478 1484 1489 1493 1498 1502 1504 1505 1505 1504 1505 1507 1507 1507 1507 1507 1507 1507 1508 1509 1511 1511 1511 1512 1513 1517 1520 1519 1517
1462 1469 1472 1476 1479 1483 1487 1493 1497 1500 1502 1503 1504 1505 1506 1506 1505 1506 1505 1505 1506 1505 1506 1508 1508 1508 1510 1510 1514 1514 1516 1520
1462 1466 1470 1473 1475 1479 1482 1487 1492 1497 1500 1501 1502 1503 1504 1504 1504 1505 1504 1502 1503 1503 1504 1504 1504 1504 1505 1506 1506 1507 1510 1518
1462 1464 1468 1470 1473 1478 1482 1487 1491 1493 1496 1498 1499 1501 1502 1502 1503 1503 1502 1500 1500 1500 1501 1501 1501 1501 1502 1502 1504 1506 1508 1510
1464 1465 1469 1470 1472 1476 1479 1484 1488 1490 1493 1495 1497 1498 1499 1500 1500 1500 1499 1498 1498 1499 1498 1500 1500 1500 1500 1500 1502 1504 1507 1509
1466 1468 1472 1473 1473 1474 1478 1482 1486 1489 1491 1492 1494 1495 1496 1497 1498 1498 1498 1495 1497 1498 1498 1498 1499 1500 1500 1499 1501 1501 1503 1507
1468 1468 1470 1471 1477 1476 1477 1480 1484 1487 1489 1491 1494 1494 1494 1495 1496 1496 1497 1495 1496 1497 1497 1497 1498 1499 1500 1499 1500 1501 1502 1505